This is the latest recevied weather packets stored in our database for station/object N4CRH-13. If no packets are shown the sender has not sent any weather packets the latest 10 day(s).
| Time | Temp. | Humidity | Pressure | Rain* | Wind** | Luminosity | Snow |
|---|---|---|---|---|---|---|---|
| 1778137836 | -4.44° C | 96% | 1296.7 hPa | 0 mm | - | 0 W/m² | - |
| 1778137533 | -4.44° C | 96% | 1296.5 hPa | 0 mm | - | 0 W/m² | - |
| 1778137230 | -4.44° C | 96% | 1296.3 hPa | 0 mm | - | 0 W/m² | - |
| 1778136926 | -3.89° C | 95% | 1296.5 hPa | 0 mm | - | 0 W/m² | - |
| 1778136623 | -3.89° C | 96% | 1296.5 hPa | 0 mm | - | 0 W/m² | - |
| 1778136321 | -4.44° C | 95% | 1296.7 hPa | 0 mm | - | 0 W/m² | - |
| 1778136020 | -4.44° C | 95% | 1296.5 hPa | 0 mm | - | 0 W/m² | - |
| 1778135716 | -3.33° C | 95% | 1296.5 hPa | 0 mm | - | 0 W/m² | - |
| 1778135414 | -3.89° C | 95% | 1296.5 hPa | 0 mm | - | 0 W/m² | - |
| 1778135110 | -3.89° C | 95% | 1296.7 hPa | 0 mm | - | 0 W/m² | - |
| 1778134808 | -3.89° C | 94% | 1296.5 hPa | 0 mm | - | 0 W/m² | - |
| 1778134505 | -3.89° C | 93% | 1296.5 hPa | 0 mm | - | 0 W/m² | - |
| 1778134203 | -3.89° C | 92% | 1296.7 hPa | 0 mm | - | 0 W/m² | - |
| 1778133900 | -3.33° C | 92% | 1296.7 hPa | 0 mm | - | 0 W/m² | - |
| 1778133596 | -2.78° C | 92% | 1296.4 hPa | 0 mm | - | 0 W/m² | - |
| 1778133292 | -3.33° C | 91% | 1296.3 hPa | 0 mm | - | 0 W/m² | - |
| 1778132989 | -2.78° C | 90% | 1296.2 hPa | 0 mm | - | 0 W/m² | - |
| 1778132685 | -2.78° C | 91% | 1296.4 hPa | 0 mm | - | 0 W/m² | - |
| 1778132382 | -2.22° C | 92% | 1296.2 hPa | 0 mm | - | 0 W/m² | - |
| 1778132080 | -2.78° C | 93% | 1296 hPa | 0 mm | - | 0 W/m² | - |
| 1778131778 | -2.78° C | 93% | 1296.3 hPa | 0 mm | - | 0 W/m² | - |
| 1778131475 | -2.78° C | 93% | 1296.3 hPa | 0 mm | - | 0 W/m² | - |
| 1778131172 | -2.78° C | 93% | 1296.4 hPa | 0 mm | - | 0 W/m² | - |
| 1778130870 | -2.78° C | 93% | 1296.2 hPa | 0 mm | - | 0 W/m² | - |
| 1778130567 | -2.78° C | 94% | 1296.2 hPa | 0 mm | - | 0 W/m² | - |
* Rain latest hour (hover to see other rain measurements)
** Current wind speed in m/s (hover to see current wind gust speed)